sat.trackr.live / text

‹ back to catalog

COSMOS 2563 (EKS 6)

NORAD 54223 · 2022-145A

PAYLOAD ACTIVE UNKNOWN

§ Identity

Operator
Country
CIS
Launch date
2022-11-02
Launch site
PLMSC
Launch vehicle
Mass (kg)
RCS (m²)

External: N2YO · Heavens-Above · Gunter

§ Orbital elements

Epoch: 2026-09-15T09:43:57.917280Z

Period
717.77 min
Inclination
63.1669°
Eccentricity
0.6998179
Mean motion
2.00620956 rev/d
Perigee alt
1,593.3 km
Apogee alt
38,761.0 km
Semi-major
26,555.3 km
B*
0.0000e+0
RAAN
269.3421°
Arg perigee
269.9558°
Mean anomaly
16.9194°
Rev number
2,837

§ Raw data

COSMOS 2563 (EKS 6)1 54223U 22145A   26258.40553145 -.00001037  00000+0  00000+0 0  99902 54223  63.1669 269.3421 6998179 269.9558  16.9194  2.00620956 28379

JSON: /api/v1/satellites/54223 · /tle

For live sub-satellite position, see the globe view (requires WebGL).

§ Visibility from observer

Set your observer location to see the next 7 days of passes ≥ 10°. The values pass through the URL so the page stays shareable.

No JS? Fill the form by hand. The geolocation button needs JavaScript.